Simultaneous Nadir Overpasses (SNOs) Predictions

Prediction of SNOs between GOES-16 and NPP Satellite Orbit:

Table of predicted SNOs for the next 14.0 days since TLE Epoch: 6/22/2024
Index Date Time (GOES-16) GOES-16 Lat,Lon NPP Lat,Lon Distance(km) Time Diff (sec)
1 06/23/2024 06:44:30 0.02, -75.21 0.96, -79.41 478.87 80
2 06/24/2024 06:23:08 0.01, -75.21 -0.08, -74.89 36.91 80
3 06/26/2024 18:29:04 -0.02, -75.22 -0.09, -75.68 52.04 80
4 06/27/2024 18:07:40 -0.01, -75.23 0.89, -71.15 464.60 80
5 06/29/2024 06:32:10 0.02, -75.26 0.30, -76.43 134.81 80
6 06/30/2024 06:10:48 0.01, -75.27 -0.74, -71.92 381.97 80
7 07/01/2024 18:35:26 -0.01, -75.28 -0.46, -77.23 222.15 80
8 07/02/2024 18:14:04 -0.00, -75.30 0.59, -72.71 294.81 80
9 07/04/2024 06:38:34 -0.00, -75.32 0.60, -77.99 304.04 80
10 07/05/2024 06:17:12 -0.01, -75.34 -0.45, -73.48 213.18 80
